{"data":{"norad_id":66344,"intl_designator":"2025-253AB","name":"STARLINK-35511","alt_names":[],"object_type":"PAYLOAD","status":"ACTIVE","operator":null,"country":"US","launch_date":"2025-11-06","launch_site_code":"AFETR","launch_vehicle":null,"mission":null,"orbit_class":"UNKNOWN","rcs_meters":null,"size_class":null,"mass_kg":null,"dimensions":null,"purposes":["comms"],"wikipedia_slug":null,"has_3d_model":false,"image_url":null,"decayed_at":null,"tle_current":{"epoch":"2026-09-20T02:46:09.308064Z","epoch_age_seconds":126691,"freshness":"FRESH","line1":"1 66344U 25253AB  26263.11538551  .00007454  00000+0  28007-3 0  9997","line2":"2 66344  42.9993 194.1157 0001043 271.2035  88.8697 15.27587110 49980","mean_motion":15.2758711,"eccentricity":0.0001043,"inclination_deg":42.9993,"raan_deg":194.1157,"arg_perigee_deg":271.2035,"mean_anomaly_deg":88.8697,"bstar":0.00028007,"rev_number":4998,"period_min":94.266309958586,"perigee_km":482.31218673513,"apogee_km":483.74342571371,"semimajor_km":6861.1648062244,"source":"CELESTRAK","updated_at":"2026-09-21T09:00:35.878107Z"}}}